Tracking 18851 objects as of 25-Nov-2017
HD Live streaming from Space Station
objects crossing your sky now

COSMOS 1190

Track COSMOS 1190 now!
10-day predictions
COSMOS 1190 is classified as:


NORAD ID: 11869
Int'l Code: 1980-056A
Perigee: 776.3 km
Apogee: 797.6 km
Inclination: 74.0 °
Period: 100.4 minutes
Semi major axis: 7157 km
RCS: 2.0919 m2 (large)
Launch date: July 1, 1980
Source: Commonwealth of Independent States (former USSR) (CIS)
Launch site: PLESETSK MISSILE AND SPACE COMPLEX (PKMTR)
aabbcc
Your satellite tracking list
Your tracking list is empty




NASA's NSSDC Master Catalog

Two Line Element Set (TLE):
1 11869U 80056A   17328.55296394  .00000026  00000-0  18719-4 0  9996
2 11869  74.0465 352.7088 0014868 245.7418 114.2181 14.33578312954894
Source of the keplerian elements: AFSPC